THORAD AGENA D DEB, 42532

Orbit data source: Space-Track

THORAD AGENA D DEB, 42532 is space debris in SSO originally from a launch on Wed, 08 Apr 1970 UTC launched from the Air Force Western Test Range (AFWTR). Debris objects in space refer to the collection of defunct objects orbiting the Earth. Examples of debris include non-operational satellites, rocket bodies, and fragments generated from explosions, collisions, or faulty payload assembly.

Loading next visibility...
Identifier
42532, 1970-025SN
Orbit
SSO
Country
Flag of USUS
Related business
Manufacturer
Unknown
Mission
Spacecraft
Bus & Motor
Unknown
Mass
Unknown
Launch date (UTC)
1970-04-08 (56 years ago)
Launch vehicle
Unknown
Launch site
Air Force Western Test Range (AFWTR)
Object type
Payload
Rocket body
Debris
Shape & HBR
Unknown shape, 0.1 m
Radar Cross Section
Small (<0.1 m²)

Expand to show TLE details & history
Last TLE update: 1 day ago

TLE from 1 day ago
0 THORAD AGENA D DEB
1 42532U 70025SN  26124.57143667  .00001973  00000-0  13063-2 0  9999
2 42532  99.9376  62.0036 0003507  61.6004 298.5512 14.02904929633565
Epoch: 2026-05-04T13:42Z
TLE epoch observation values (Epoch: 2026-05-04T13:42:52.128Z)
Latitude
-0.00002°
Longitude
-6.17232°
Altitude
885.386 km
Speed
7.41 km/s
True Right ascension
04h 08m 00s
True Declination
0° 00' 00"
Sunlit
Object was in daylight at epoch
Visualization orbit readout
Latitude
Unknown
Longitude
Unknown
Altitude
Unknown
Speed
Unknown
Apparent Right ascension
Unknown
Apparent Declination
Unknown
Sunlit
N/A
Visualization observer readout
Local Sidereal Time
01:56:45
Azimuth
Unknown
Elevation
Unknown
Doppler factor
Unknown
Orbital elements
Apogee altitude
883.543 km
Perigee altitude
878.451 km
Semi-major axis
7,259.134 km
Eccentricity
0.00035
Inclination
99.9376°
RAAN
62.0036°
Arg. of periapsis
61.6004°
True anomaly
298.51589°
Mean anomaly
298.5512°
Eccentric anomaly
298.53355°
Mean motion
3.50926 °/min
Orbital period
102.59 mins
BSTAR
0.0013063
Loading maneuver chart data...
Computing Atmospheric mass density...

Documentation

Showing up to 5 results
|